Wind_Speed
29 30 31 30 29 28 27 26 24 21 20 18 19 18 18 16 15 14 14 13 13 12 13 13 13 13 14 15 15 16 17 17 17 18 18 18 18 19 20 20 21 22 22 22
30 30 30 30 29 28 27 25 23 21 20 18 19 19 18 16 15 15 14 13 13 12 13 13 12 12 13 14 15 16 17 17 18 18 18 18 19 20 20 21 21 22 23 23
31 31 31 31 29 27 27 26 23 22 19 18 18 19 18 17 16 15 14 14 13 13 12 13 12 12 13 12 13 15 16 17 17 18 18 19 19 19 19 20 21 21 23 23
31 32 33 29 28 27 26 24 22 21 20 19 17 18 17 17 16 16 16 16 15 14 13 12 12 12 12 13 14 14 15 16 16 16 18 18 18 19 19 19 20 20 20 21
33 34 32 30 28 27 26 24 22 21 20 19 18 17 17 17 17 16 15 15 15 14 13 13 13 13 13 13 14 15 15 16 17 17 17 17 18 18 18 19 19 20 20 21
34 34 33 29 27 27 26 24 22 21 20 19 18 18 17 17 17 16 16 16 16 16 15 14 15 15 14 14 14 15 16 16 17 17 17 17 18 18 19 19 20 20 21 21
34 34 32 29 28 27 26 23 23 22 20 20 19 18 18 18 17 17 16 16 16 16 16 16 16 16 16 16 16 17 17 17 17 17 17 18 19 19 19 19 20 21 21 21
34 34 32 28 28 27 25 24 23 22 21 20 20 19 19 18 17 17 17 17 17 17 17 16 16 16 17 18 18 18 19 18 18 18 19 19 20 20 20 20 20 21 21 21
32 32 30 28 27 26 24 24 23 22 21 20 20 19 18 17 18 18 18 17 18 18 18 17 18 18 19 19 20 20 20 20 20 20 20 20 21 21 22 21 21 22 22 22
30 30 30 27 26 25 24 23 23 22 21 21 20 18 17 17 18 18 17 18 18 18 18 18 18 18 18 19 19 20 21 21 22 23 22 22 22 21 21 21 22 23 23 24
29 28 28 27 26 24 23 23 23 24 22 21 21 20 19 18 18 18 17 18 18 18 18 19 19 19 19 19 19 19 20 21 22 23 23 23 23 23 22 22 23 23 23 24
29 29 28 26 25 23 24 23 22 22 22 20 21 21 21 19 19 19 18 18 17 17 18 19 19 20 21 21 21 21 21 22 22 22 23 24 24 24 24 24 24 24 24 25
28 27 27 26 25 23 23 22 22 22 21 21 21 22 21 20 19 19 19 18 17 17 18 18 19 20 20 21 21 21 22 23 23 24 24 23 23 24 24 25 25 26 26 27
28 27 26 26 25 23 22 22 22 22 22 21 21 22 21 20 19 20 19 18 17 17 18 18 18 18 19 19 19 20 21 21 22 22 22 23 23 24 26 27 27 27 28 28
26 26 25 25 24 23 22 22 22 22 22 21 21 21 20 20 20 20 19 18 17 17 17 17 18 18 17 17 18 18 19 21 21 21 22 22 23 24 25 26 27 27 27 28
23 23 24 23 22 21 21 21 21 21 20 20 20 19 18 18 18 18 18 17 17 17 16 16 16 17 17 17 17 17 18 18 19 19 20 21 22 23 24 25 27 27 28 30
21 22 22 23 21 21 20 20 19 19 18 18 17 17 16 16 16 16 17 17 17 17 16 16 16 17 17 17 18 17 18 18 19 20 21 22 23 23 24 25 26 28 29 30
20 20 21 22 21 21 20 20 19 18 18 18 17 16 15 15 16 16 16 16 16 16 16 17 17 17 18 18 18 19 19 20 20 21 21 22 23 24 25 26 27 28 29 30
20 20 21 21 21 21 20 20 20 19 18 17 17 16 16 15 15 15 15 15 15 16 16 16 17 18 18 19 20 20 20 20 20 21 22 23 24 25 26 27 28 29 31 31
19 19 19 19 19 19 18 18 18 18 17 16 16 16 16 16 15 15 15 15 15 16 16 16 17 17 18 19 20 21 21 21 21 22 23 24 25 26 27 28 29 30 30 31
17 18 18 17 17 17 17 17 16 16 16 15 15 15 15 15 15 16 16 16 16 16 16 17 17 18 18 19 19 20 21 21 22 23 23 24 25 26 27 28 29 29 30 31
17 17 17 17 17 16 15 15 15 14 14 15 14 14 14 15 15 15 16 16 16 17 18 18 18 18 19 19 20 20 21 22 23 23 24 25 26 26 27 28 29 29 30 31
17 17 17 16 17 16 15 14 14 14 14 14 14 14 14 15 15 15 15 15 16 17 17 17 18 18 19 19 20 20 21 22 22 23 24 25 26 27 27 28 28 29 30 31
15 15 14 14 14 14 14 13 13 14 14 14 14 14 14 14 14 15 15 16 16 16 17 17 18 18 19 20 20 21 22 22 23 24 24 25 26 27 28 28 29 30 31 32
14 13 13 13 13 12 12 12 12 13 13 13 13 14 14 14 14 14 15 15 16 16 17 17 18 19 20 20 21 22 22 23 24 25 25 26 27 28 28 29 30 31 32 33
14 13 13 12 12 11 11 11 12 12 12 12 12 13 14 14 14 15 15 15 16 17 18 18 18 19 20 20 21 22 23 24 24 25 26 26 27 28 29 30 31 32 33 34
13 13 12 12 11 11 10 10 11 11 11 11 12 12 13 13 14 15 15 16 17 18 19 19 19 20 21 22 23 23 24 25 25 26 27 28 28 29 30 31 32 33 34 35
Wind_Direction
215 217 221 224 226 229 235 239 241 243 243 238 239 239 243 246 249 250 251 252 253 252 252 252 245 236 229 225 225 228 230 231 233 232 230 232 233 233 232 229 229 229 232 232
215 217 221 224 226 229 234 238 240 242 241 240 241 241 242 245 247 249 248 249 252 251 250 249 246 236 231 228 229 231 234 236 234 231 232 233 235 236 236 234 232 234 234 235
216 219 222 223 225 229 234 238 240 242 241 241 240 242 244 245 245 246 245 250 255 255 254 250 244 240 237 235 234 233 235 235 235 233 235 236 236 235 237 235 234 235 237 238
218 219 222 223 225 229 232 236 238 239 239 241 243 243 244 243 243 244 245 247 251 253 252 250 243 239 238 238 237 237 237 235 235 238 236 236 237 239 240 239 238 239 241 241
221 223 225 225 227 229 233 235 237 238 241 242 244 244 244 244 244 245 246 246 247 249 249 246 242 241 240 240 241 240 240 238 237 237 237 237 237 238 239 239 239 241 244 246
223 225 227 226 227 230 233 235 236 237 239 242 245 245 245 244 244 243 245 248 245 247 246 245 244 244 242 242 242 241 242 241 240 239 237 236 237 240 242 242 241 243 247 249
224 226 228 227 227 230 234 235 237 238 240 242 242 245 244 242 242 243 246 244 242 244 245 246 247 247 244 244 244 243 243 244 243 243 240 239 241 244 245 244 244 246 249 250
225 227 229 228 230 232 236 236 235 235 238 240 242 244 244 243 244 244 244 241 241 245 245 246 249 248 245 245 246 246 246 247 247 246 245 245 246 247 248 248 247 247 250 252
225 226 227 229 230 232 235 235 233 232 234 237 239 242 244 243 242 242 242 241 242 246 246 248 248 249 250 250 250 250 248 249 249 249 249 249 248 249 250 250 250 250 252 255
225 226 226 228 229 230 231 232 230 229 230 234 234 237 242 242 243 244 245 246 248 249 248 247 248 250 252 252 252 252 249 248 248 248 251 251 248 249 250 251 252 253 255 258
225 224 224 227 228 228 227 227 227 228 229 231 234 237 241 243 243 244 248 251 252 251 248 249 250 251 252 254 254 251 250 247 247 248 249 248 247 249 251 252 252 254 256 259
224 223 223 226 225 225 227 230 230 229 229 234 237 239 241 242 242 244 247 248 249 250 250 251 251 252 251 253 253 252 251 249 247 248 250 249 248 249 252 253 253 255 258 260
220 220 222 223 225 226 228 230 229 230 233 237 238 237 236 238 240 243 244 247 251 251 250 251 253 252 251 252 252 251 252 250 248 248 249 251 252 251 253 256 258 259 261 263
218 218 219 221 225 227 227 228 228 229 234 237 239 237 236 237 240 243 245 249 252 252 252 253 255 255 253 252 251 252 250 248 247 247 249 251 252 253 254 256 260 262 263 265
211 212 215 217 219 221 222 223 225 229 234 238 234 234 235 236 238 241 244 248 251 254 255 254 255 256 256 255 255 255 251 248 249 251 253 255 255 256 257 258 261 264 266 268
204 205 208 210 213 214 216 219 223 226 231 233 231 230 232 236 239 240 244 247 250 253 253 254 256 257 258 258 259 257 254 252 252 253 256 259 260 260 261 262 264 267 269 270
203 204 205 207 211 211 213 217 219 223 227 226 225 226 230 235 238 240 242 245 249 252 254 255 256 256 257 257 256 256 256 257 259 260 261 263 264 265 265 266 267 269 272 272
199 201 204 206 208 209 211 214 216 219 222 223 225 229 233 236 238 240 242 245 249 252 255 256 258 259 259 259 259 260 260 260 261 262 263 265 266 266 266 267 270 273 274 274
194 198 202 204 209 209 209 211 212 217 221 224 228 232 234 237 240 242 244 245 249 252 255 255 256 257 259 260 262 264 263 263 262 263 264 266 268 268 269 270 272 275 276 278
191 190 193 196 199 203 205 210 214 220 224 227 229 232 234 236 240 245 248 250 253 254 256 256 256 258 259 261 263 265 265 265 265 266 267 270 271 272 273 274 276 277 279 281
185 187 189 191 195 200 206 209 211 217 220 223 227 232 237 241 244 249 251 253 254 255 256 258 259 261 262 264 265 267 268 269 270 271 272 272 274 275 277 278 279 281 283 285
186 189 191 196 200 202 206 210 213 218 221 223 229 236 242 245 248 251 252 255 258 259 260 261 262 263 264 265 266 269 271 272 273 274 275 277 278 281 283 284 285 286 287 288
187 190 195 199 201 204 211 217 221 225 228 230 235 241 244 247 251 254 254 257 261 263 264 265 266 268 269 270 271 272 274 276 277 279 281 283 284 285 286 286 287 288 289 290
185 189 195 199 203 207 213 219 224 228 231 234 238 243 245 250 253 253 254 256 259 262 266 269 272 274 274 275 275 277 279 281 282 283 284 284 285 286 287 288 289 290 291 292
185 190 195 198 202 207 213 220 226 229 232 236 240 244 247 250 252 253 255 258 261 265 268 270 272 274 276 277 278 280 282 283 284 285 285 286 287 288 289 290 291 292 293 294
188 191 196 201 206 212 217 222 227 231 236 241 244 247 251 254 255 255 257 261 265 268 271 273 276 278 280 282 284 285 286 286 286 287 288 289 289 290 291 292 293 295 296 296
192 195 199 204 208 214 220 224 228 230 234 238 244 250 253 256 258 260 262 265 268 272 275 278 280 281 283 286 287 288 288 287 288 288 290 291 292 293 294 295 295 296 297 297
Height
5749 5754 5758 5762 5766 5770 5773 5777 5781 5785 5788 5791 5793 5795 5797 5798 5800 5800 5801 5802 5802 5802 5803 5804 5804 5804 5805 5807 5809 5812 5814 5816 5818 5819 5821 5823 5825 5827 5829 5831 5834 5837 5839 5842
5743 5748 5752 5757 5761 5765 5769 5773 5776 5780 5783 5786 5788 5790 5792 5794 5795 5796 5797 5798 5798 5799 5800 5800 5801 5802 5803 5805 5807 5809 5811 5813 5814 5816 5818 5820 5822 5824 5826 5828 5830 5833 5835 5837
5738 5743 5747 5751 5756 5760 5764 5768 5772 5775 5779 5781 5783 5785 5788 5790 5791 5792 5793 5794 5795 5796 5796 5797 5798 5800 5801 5803 5804 5806 5808 5810 5811 5813 5815 5816 5818 5820 5823 5825 5827 5829 5831 5833
5733 5738 5742 5749 5752 5756 5760 5764 5767 5770 5774 5776 5779 5781 5783 5785 5787 5788 5789 5790 5791 5792 5793 5794 5795 5797 5799 5800 5802 5803 5805 5806 5808 5810 5811 5813 5815 5817 5819 5821 5823 5825 5827 5829
5727 5731 5736 5743 5747 5751 5755 5759 5763 5766 5769 5772 5774 5776 5779 5780 5782 5784 5785 5786 5787 5788 5790 5791 5793 5795 5796 5797 5799 5800 5802 5803 5805 5806 5808 5810 5812 5813 5815 5817 5819 5821 5823 5824
5721 5726 5731 5738 5743 5746 5751 5754 5758 5761 5764 5767 5769 5772 5775 5776 5777 5779 5781 5782 5783 5785 5786 5788 5790 5791 5793 5794 5796 5797 5799 5800 5801 5803 5804 5806 5808 5809 5811 5813 5815 5817 5818 5820
5715 5720 5726 5732 5737 5741 5747 5751 5754 5756 5759 5762 5765 5767 5769 5771 5773 5774 5776 5778 5779 5781 5783 5784 5785 5787 5789 5790 5792 5793 5794 5796 5797 5799 5800 5802 5804 5805 5807 5808 5810 5812 5813 5814
5709 5715 5723 5727 5731 5736 5741 5745 5748 5751 5754 5757 5759 5762 5763 5766 5768 5770 5771 5773 5775 5777 5778 5780 5781 5782 5784 5785 5787 5788 5790 5792 5793 5795 5796 5798 5799 5800 5802 5803 5805 5806 5808 5809
5705 5712 5717 5721 5726 5731 5735 5739 5742 5746 5749 5752 5755 5757 5759 5761 5763 5765 5767 5769 5771 5772 5774 5775 5776 5778 5779 5781 5782 5784 5785 5787 5788 5790 5791 5793 5794 5796 5797 5798 5799 5801 5802 5803
5700 5705 5711 5716 5721 5725 5729 5733 5737 5741 5744 5747 5750 5752 5754 5756 5758 5760 5761 5764 5766 5767 5769 5770 5771 5773 5774 5775 5777 5778 5779 5781 5783 5785 5787 5788 5789 5790 5791 5793 5794 5795 5796 5797
5695 5700 5706 5711 5716 5720 5725 5728 5732 5735 5739 5742 5745 5748 5750 5751 5753 5755 5757 5759 5760 5762 5763 5765 5767 5768 5769 5770 5772 5773 5774 5775 5777 5779 5781 5782 5784 5785 5786 5787 5788 5789 5790 5790
5690 5696 5701 5706 5711 5715 5719 5723 5726 5730 5734 5737 5740 5743 5745 5747 5749 5751 5753 5754 5756 5757 5759 5760 5762 5763 5764 5765 5766 5767 5768 5769 5771 5773 5775 5776 5777 5779 5780 5781 5782 5783 5783 5784
5685 5691 5696 5701 5706 5710 5714 5718 5722 5726 5729 5732 5735 5737 5739 5742 5744 5746 5748 5750 5751 5752 5754 5755 5757 5757 5758 5759 5760 5761 5762 5763 5765 5767 5769 5770 5771 5773 5774 5775 5775 5776 5777 5777
5681 5686 5692 5696 5701 5705 5710 5714 5717 5721 5724 5727 5729 5732 5734 5736 5739 5741 5743 5745 5746 5747 5749 5750 5751 5752 5752 5753 5754 5755 5756 5758 5759 5761 5762 5764 5765 5766 5767 5768 5769 5769 5769 5769
5676 5682 5688 5692 5696 5701 5705 5709 5713 5716 5719 5722 5725 5727 5729 5732 5734 5736 5738 5740 5741 5742 5743 5744 5746 5747 5747 5748 5749 5750 5751 5752 5754 5755 5756 5757 5758 5759 5760 5761 5761 5761 5761 5761
5673 5678 5683 5688 5693 5697 5701 5705 5708 5711 5714 5717 5720 5722 5725 5727 5729 5731 5733 5735 5736 5737 5738 5739 5740 5741 5742 5743 5744 5744 5745 5747 5748 5750 5751 5752 5752 5753 5753 5754 5754 5754 5754 5753
5670 5675 5680 5685 5689 5693 5698 5701 5704 5707 5710 5713 5715 5718 5720 5723 5725 5727 5728 5730 5731 5733 5733 5734 5735 5736 5737 5738 5739 5739 5740 5741 5743 5744 5745 5745 5746 5746 5746 5747 5747 5746 5746 5745
5668 5672 5677 5682 5686 5690 5694 5697 5701 5704 5706 5709 5712 5714 5716 5718 5720 5722 5724 5725 5727 5728 5728 5729 5730 5731 5731 5732 5733 5734 5735 5736 5737 5738 5738 5738 5739 5739 5739 5739 5739 5738 5737 5736
5666 5670 5674 5678 5682 5687 5690 5694 5697 5700 5703 5706 5708 5710 5712 5714 5716 5718 5719 5720 5722 5723 5724 5724 5725 5725 5726 5727 5728 5728 5729 5730 5730 5731 5731 5731 5731 5731 5731 5731 5731 5730 5729 5727
5664 5667 5671 5676 5680 5684 5688 5691 5694 5697 5699 5702 5704 5706 5709 5710 5712 5714 5715 5715 5717 5718 5718 5719 5720 5720 5721 5722 5722 5723 5723 5723 5723 5724 5724 5724 5724 5723 5723 5723 5722 5721 5719 5718
5663 5667 5670 5674 5678 5682 5685 5688 5691 5694 5696 5699 5701 5703 5705 5706 5708 5709 5710 5711 5712 5713 5713 5714 5715 5715 5716 5716 5716 5717 5717 5717 5717 5717 5717 5717 5716 5715 5715 5714 5712 5711 5710 5708
5663 5666 5670 5673 5676 5680 5683 5686 5688 5691 5693 5695 5698 5699 5701 5702 5704 5705 5706 5707 5707 5708 5708 5709 5709 5710 5710 5710 5711 5711 5711 5710 5710 5710 5709 5709 5708 5707 5706 5705 5703 5702 5700 5699
5662 5665 5668 5672 5675 5678 5680 5683 5686 5688 5690 5692 5694 5696 5697 5698 5699 5700 5701 5702 5702 5703 5703 5703 5704 5704 5704 5705 5705 5704 5704 5704 5703 5703 5702 5701 5700 5699 5697 5696 5695 5693 5691 5689
5661 5664 5667 5670 5673 5676 5678 5681 5683 5685 5687 5689 5690 5692 5693 5694 5695 5696 5697 5697 5698 5698 5699 5699 5699 5699 5699 5699 5698 5698 5697 5697 5696 5695 5694 5693 5692 5691 5689 5687 5686 5684 5682 5679
5660 5663 5666 5669 5672 5674 5676 5678 5680 5682 5684 5685 5686 5688 5689 5690 5691 5692 5692 5693 5693 5694 5694 5694 5694 5693 5693 5693 5692 5691 5691 5690 5689 5688 5687 5685 5684 5682 5681 5679 5677 5675 5672 5670
5660 5663 5666 5668 5670 5672 5674 5676 5678 5679 5681 5682 5683 5684 5685 5686 5687 5687 5688 5688 5689 5689 5689 5688 5688 5688 5687 5686 5685 5685 5684 5683 5681 5680 5679 5677 5676 5674 5672 5670 5668 5665 5662 5659
5660 5662 5664 5666 5669 5671 5672 5674 5675 5676 5678 5679 5680 5681 5681 5682 5682 5683 5683 5684 5684 5684 5683 5683 5682 5681 5681 5680 5679 5678 5676 5675 5674 5672 5671 5669 5667 5665 5663 5661 5658 5655 5652 5649